TimePDT,TemperatureF,Dew PointF,Humidity,Sea Level PressureIn,VisibilityMPH,Wind Direction,Wind SpeedMPH,Gust SpeedMPH,PrecipitationIn,Events,Conditions,WindDirDegrees,DateUTC
12:15 AM,44.6,35.6,71,30.05,10.0,SSW,3.5,-,N/A,,Clear,200,2012-11-03 07:15:00
12:35 AM,44.6,35.6,71,30.06,10.0,SSW,5.8,-,N/A,,Partly Cloudy,210,2012-11-03 07:35:00
12:55 AM,44.6,35.6,71,30.05,10.0,SSW,8.1,-,N/A,,Clear,200,2012-11-03 07:55:00
1:15 AM,46.4,32.0,57,30.05,10.0,South,10.4,-,N/A,,Clear,190,2012-11-03 08:15:00
1:35 AM,46.4,32.0,57,30.06,10.0,South,8.1,-,N/A,,Partly Cloudy,180,2012-11-03 08:35:00
1:55 AM,46.4,32.0,57,30.06,10.0,South,4.6,-,N/A,,Partly Cloudy,180,2012-11-03 08:55:00
2:15 AM,46.4,32.0,57,30.06,10.0,South,5.8,-,N/A,,Clear,190,2012-11-03 09:15:00
2:35 AM,46.4,32.0,57,30.06,10.0,SW,9.2,-,N/A,,Scattered Clouds,220,2012-11-03 09:35:00
2:55 AM,48.2,32.0,54,30.06,10.0,SW,11.5,-,N/A,,Mostly Cloudy,220,2012-11-03 09:55:00
3:15 AM,48.2,32.0,54,30.05,10.0,SW,10.4,-,N/A,,Scattered Clouds,230,2012-11-03 10:15:00
3:35 AM,48.2,32.0,54,30.06,10.0,SW,10.4,-,N/A,,Partly Cloudy,220,2012-11-03 10:35:00
3:55 AM,46.4,32.0,57,30.05,10.0,South,4.6,-,N/A,,Clear,190,2012-11-03 10:55:00
4:15 AM,46.4,32.0,57,30.06,10.0,SE,6.9,-,N/A,,Clear,130,2012-11-03 11:15:00
4:35 AM,48.2,32.0,54,30.06,10.0,South,5.8,-,N/A,,Clear,170,2012-11-03 11:35:00
4:55 AM,46.4,32.0,57,30.08,10.0,Calm,Calm,-,N/A,,Clear,0,2012-11-03 11:55:00
5:15 AM,46.4,32.0,57,30.08,10.0,ENE,3.5,-,N/A,,Clear,60,2012-11-03 12:15:00
5:35 AM,44.6,32.0,61,30.08,10.0,ESE,3.5,-,N/A,,Clear,110,2012-11-03 12:35:00
5:55 AM,42.8,32.0,66,30.09,10.0,Calm,Calm,-,N/A,,Clear,0,2012-11-03 12:55:00
6:15 AM,46.4,35.6,66,30.09,10.0,SSW,6.9,-,N/A,,Clear,210,2012-11-03 13:15:00
6:35 AM,46.4,33.8,62,30.09,10.0,SSE,3.5,-,N/A,,Clear,150,2012-11-03 13:35:00
6:55 AM,48.2,35.6,62,30.09,10.0,SSW,4.6,-,N/A,,Clear,210,2012-11-03 13:55:00
7:15 AM,50.0,35.6,58,30.10,10.0,SW,6.9,-,N/A,,Clear,220,2012-11-03 14:15:00
7:35 AM,48.2,35.6,62,30.10,10.0,SW,11.5,16.1,N/A,,Clear,220,2012-11-03 14:35:00
7:55 AM,50.0,35.6,58,30.11,10.0,SW,10.4,-,N/A,,Clear,220,2012-11-03 14:55:00
8:35 AM,50.0,35.6,58,30.12,10.0,SW,8.1,-,N/A,,Clear,220,2012-11-03 15:35:00
8:55 AM,53.6,35.6,51,30.13,10.0,SSW,5.8,-,N/A,,Clear,210,2012-11-03 15:55:00
9:15 AM,53.6,35.6,51,30.13,10.0,SSE,4.6,-,N/A,,Clear,160,2012-11-03 16:15:00
9:35 AM,53.6,35.6,51,30.13,10.0,SSW,16.1,-,N/A,,Clear,210,2012-11-03 16:35:00
9:55 AM,53.6,35.6,51,30.13,10.0,SSW,18.4,25.3,N/A,,Clear,210,2012-11-03 16:55:00
10:15 AM,53.6,35.6,51,30.14,10.0,SW,19.6,26.5,N/A,,Clear,220,2012-11-03 17:15:00
10:35 AM,55.4,35.6,47,30.14,10.0,SSW,17.3,24.2,N/A,,Clear,210,2012-11-03 17:35:00
11:15 AM,55.4,35.6,47,30.15,10.0,SSW,17.3,24.2,N/A,,Clear,210,2012-11-03 18:15:00
11:35 AM,55.4,37.4,51,30.15,10.0,SSW,12.7,-,N/A,,Clear,210,2012-11-03 18:35:00
11:55 AM,57.2,37.4,48,30.15,10.0,SW,16.1,23.0,N/A,,Clear,220,2012-11-03 18:55:00
12:15 PM,57.2,37.4,48,30.16,10.0,SSW,17.3,21.9,N/A,,Clear,210,2012-11-03 19:15:00
12:35 PM,57.2,37.4,48,30.15,10.0,SSW,12.7,20.7,N/A,,Clear,210,2012-11-03 19:35:00
12:55 PM,57.2,37.4,48,30.16,10.0,SW,13.8,20.7,N/A,,Clear,220,2012-11-03 19:55:00
1:15 PM,59.0,35.6,42,30.15,10.0,SW,12.7,18.4,N/A,,Clear,230,2012-11-03 20:15:00
1:35 PM,59.0,32.0,36,30.16,10.0,WSW,8.1,-,N/A,,Clear,240,2012-11-03 20:35:00
1:55 PM,59.0,32.0,36,30.16,10.0,SW,12.7,-,N/A,,Clear,220,2012-11-03 20:55:00
2:15 PM,59.0,32.0,36,30.17,10.0,WSW,9.2,-,N/A,,Clear,250,2012-11-03 21:15:00
2:35 PM,57.2,32.0,38,30.17,10.0,West,5.8,-,N/A,,Clear,260,2012-11-03 21:35:00
2:55 PM,57.2,32.0,38,30.17,10.0,SW,9.2,-,N/A,,Clear,220,2012-11-03 21:55:00
3:15 PM,57.2,32.0,38,30.16,10.0,SW,6.9,-,N/A,,Clear,230,2012-11-03 22:15:00
3:35 PM,57.2,32.0,38,30.17,10.0,SSW,8.1,-,N/A,,Clear,210,2012-11-03 22:35:00
3:55 PM,57.2,35.6,44,30.18,10.0,West,5.8,-,N/A,,Clear,280,2012-11-03 22:55:00
4:15 PM,57.2,35.6,44,30.20,10.0,North,4.6,-,N/A,,Clear,360,2012-11-03 23:15:00
4:35 PM,55.4,37.4,51,30.20,0.8,Calm,Calm,-,N/A,,Haze,0,2012-11-03 23:35:00
4:55 PM,55.4,37.4,51,30.20,10.0,NNE,4.6,-,N/A,,Clear,20,2012-11-03 23:55:00
5:15 PM,55.4,37.4,51,30.20,10.0,Calm,Calm,-,N/A,,Clear,0,2012-11-04 00:15:00
5:35 PM,55.4,37.4,51,30.20,10.0,Calm,Calm,-,N/A,,Clear,0,2012-11-04 00:35:00
5:55 PM,53.6,37.4,54,30.20,10.0,Calm,Calm,-,N/A,,Clear,0,2012-11-04 00:55:00
6:15 PM,53.6,37.4,54,30.20,10.0,Calm,Calm,-,N/A,,Clear,0,2012-11-04 01:15:00
6:35 PM,53.6,37.4,54,30.21,10.0,Calm,Calm,-,N/A,,Clear,0,2012-11-04 01:35:00
6:55 PM,53.6,33.8,47,30.21,10.0,SW,3.5,-,N/A,,Clear,230,2012-11-04 01:55:00
7:35 PM,48.2,35.6,62,30.21,10.0,Calm,Calm,-,N/A,,Clear,0,2012-11-04 02:35:00
7:55 PM,48.2,35.6,62,30.21,10.0,Calm,Calm,-,N/A,,Clear,0,2012-11-04 02:55:00
8:15 PM,48.2,35.6,62,30.21,10.0,West,3.5,-,N/A,,Clear,280,2012-11-04 03:15:00
8:35 PM,50.0,35.6,58,30.22,10.0,Calm,Calm,-,N/A,,Partly Cloudy,0,2012-11-04 03:35:00
8:55 PM,50.0,39.2,66,30.23,10.0,West,4.6,-,N/A,,Partly Cloudy,270,2012-11-04 03:55:00
9:15 PM,51.8,37.4,58,30.22,10.0,West,4.6,-,N/A,,Mostly Cloudy,270,2012-11-04 04:15:00
9:35 PM,51.8,37.4,58,30.23,10.0,Calm,Calm,-,N/A,,Mostly Cloudy,0,2012-11-04 04:35:00
9:55 PM,50.0,37.4,62,30.23,10.0,SE,4.6,-,N/A,,Scattered Clouds,130,2012-11-04 04:55:00
10:15 PM,48.2,35.6,62,30.23,10.0,South,3.5,-,N/A,,Clear,180,2012-11-04 05:15:00
10:35 PM,48.2,37.4,66,30.23,10.0,Calm,Calm,-,N/A,,Mostly Cloudy,0,2012-11-04 05:35:00
10:55 PM,48.2,37.4,66,30.23,10.0,Calm,Calm,-,N/A,,Overcast,0,2012-11-04 05:55:00
11:15 PM,51.8,35.6,54,30.24,10.0,South,6.9,-,N/A,,Mostly Cloudy,180,2012-11-04 06:15:00
11:35 PM,51.8,35.6,54,30.23,10.0,SW,11.5,-,N/A,,Partly Cloudy,220,2012-11-04 06:35:00
11:55 PM,51.8,35.6,54,30.23,10.0,SSW,16.1,-,N/A,,Partly Cloudy,200,2012-11-04 06:55:00